Weather History for KOXI - December, 2012

Change the Weather History Date:

Sunday, December 2, 2012

  Actual Average (KVPZ) Record (KVPZ)
Temperature  
Mean Temperature 50 °F 33 °F  
Max Temperature 59 °F 40 °F 62 °F (2012)
Min Temperature 42 °F 26 °F 13 °F (2005)
Degree Days  
Heating Degree Days 14 32  
Month to date heating degree days 64  
Since 1 July heating degree days 1322  
Cooling Degree Days 0 0  
Month to date cooling degree days 0  
Year to date cooling degree days 713  
Moisture  
Dew Point 51 °F    
Average Humidity 87    
Maximum Humidity 99    
Minimum Humidity 58    
Precipitation  
Precipitation 0.00 in 0.09 in 0.23 in (2007)
Month to date precipitation 0.18  
Year to date precipitation 35.51  
Sea Level Pressure  
Sea Level Pressure 29.98 in    
Wind  
Wind Speed 11 mph (SW)    
Max Wind Speed 20 mph    
Max Gust Speed 28 mph    
Visibility 7 miles    
Events      
T = Trace of Precipitation, MM = Missing Value Source: NWS Daily Summary

Daily Weather History Graph

Daily Weather History Graph

Search for Another Location

Airport or City:

Trip Planner

Search our weather history database for the weather conditions in past years. The results will help you decide how hot, cold, wet, or windy it might be!

Date:

Astronomy

Dec. 02, 2012 Rise Set
Actual Time 6:54 AM CST 4:17 PM CST
Civil Twilight 6:23 AM CST 4:48 PM CST
Nautical Twilight 5:49 AM CST 5:23 PM CST
Astronomical Twilight 5:16 AM CST 5:56 PM CST
Moon 8:05 PM CST (12/2) 9:43 AM CST (12/2)
Length of Visible Light 10h 24m
Length of Day
9h 23m
Waning Gibbous, 85% of the Moon is Illuminated
Dec 2
Waning Gibbous
Dec 6
Last Quarter
Dec 13
New
Dec 19
First Quarter
Dec 28
Full

Hourly Weather History & Observations

Time (CST) Temp. Windchill Dew Point Humidity Pressure Visibility Wind Dir Wind Speed Gust Speed Precip Events Conditions
12:15 AM 59.5 °F - 44.8 °F 58% 29.95 in 10.0 mi SSW 16.1 mph - N/A   Overcast
12:55 AM 59.4 °F - 44.8 °F 58% 29.93 in 10.0 mi SSW 17.3 mph 23.0 mph N/A   Overcast
1:15 AM 59.2 °F - 45.0 °F 59% 29.93 in 10.0 mi SSW 19.6 mph 27.6 mph N/A   Overcast
1:35 AM 59.4 °F - 45.7 °F 61% 29.93 in 10.0 mi SSW 16.1 mph 23.0 mph N/A   Overcast
1:55 AM 59.4 °F - 46.0 °F 61% 29.93 in 10.0 mi SSW 13.8 mph 23.0 mph N/A   Overcast
2:15 AM 59.4 °F - 46.4 °F 62% 29.92 in 10.0 mi SSW 16.1 mph 19.6 mph N/A   Overcast
2:35 AM 59.4 °F - 46.6 °F 63% 29.92 in 10.0 mi SSW 16.1 mph 21.9 mph N/A   Overcast
2:55 AM 59.4 °F - 46.9 °F 63% 29.92 in 10.0 mi SSW 16.1 mph 21.9 mph N/A   Overcast
3:15 AM 59.5 °F - 47.7 °F 65% 29.91 in 10.0 mi SSW 16.1 mph 24.2 mph N/A   Overcast
3:35 AM 57.9 °F - 49.6 °F 74% 29.92 in 5.0 mi SW 18.4 mph 24.2 mph N/A   Overcast
3:55 AM 56.8 °F - 50.9 °F 80% 29.91 in 7.0 mi SW 16.1 mph 26.5 mph N/A   Overcast
4:15 AM 55.6 °F - 52.0 °F 88% 29.91 in 10.0 mi SSW 15.0 mph - N/A   Overcast
4:35 AM 55.8 °F - 51.8 °F 87% 29.91 in 10.0 mi SSW 15.0 mph 21.9 mph N/A   Overcast
4:55 AM 56.1 °F - 52.0 °F 86% 29.91 in 10.0 mi SW 18.4 mph 23.0 mph N/A   Overcast
5:15 AM 55.2 °F - 52.3 °F 90% 29.92 in 7.0 mi SW 13.8 mph 17.3 mph N/A   Overcast
5:35 AM 54.7 °F - 52.7 °F 93% 29.92 in 7.0 mi SSW 13.8 mph - N/A   Overcast
5:55 AM 54.5 °F - 52.7 °F 94% 29.92 in 10.0 mi SW 9.2 mph - N/A   Overcast
6:15 AM 54.1 °F - 52.7 °F 95% 29.93 in 10.0 mi SSW 10.4 mph 17.3 mph N/A   Overcast
6:35 AM 54.5 °F - 52.7 °F 94% 29.93 in 10.0 mi SW 9.2 mph - N/A   Overcast
6:55 AM 54.5 °F - 52.7 °F 94% 29.93 in 10.0 mi SW 10.4 mph - N/A   Overcast
7:15 AM 54.7 °F - 52.7 °F 93% 29.94 in 10.0 mi SW 10.4 mph - N/A   Overcast
7:35 AM 55.0 °F - 52.7 °F 92% 29.95 in 10.0 mi SSW 9.2 mph - N/A   Overcast
7:55 AM 55.2 °F - 52.9 °F 92% 29.95 in 10.0 mi SW 10.4 mph - N/A   Overcast
8:15 AM 55.4 °F - 52.9 °F 91% 29.96 in 10.0 mi SW 11.5 mph - N/A   Overcast
8:35 AM 55.4 °F - 52.9 °F 91% 29.96 in 10.0 mi SW 9.2 mph - N/A   Overcast
8:55 AM 55.4 °F - 52.9 °F 91% 29.97 in 10.0 mi SW 9.2 mph - N/A   Overcast
9:15 AM 55.6 °F - 52.9 °F 91% 29.97 in 10.0 mi SW 8.1 mph - N/A   Overcast
9:35 AM 55.6 °F - 53.1 °F 91% 29.97 in 10.0 mi SW 8.1 mph - N/A   Overcast
9:55 AM 56.1 °F - 53.4 °F 91% 29.98 in 10.0 mi SW 5.8 mph - N/A   Overcast
10:15 AM 56.8 °F - 54.0 °F 90% 29.98 in 10.0 mi SW 8.1 mph - N/A   Overcast
10:35 AM 57.7 °F - 54.5 °F 89% 29.98 in 10.0 mi WSW 10.4 mph - N/A   Overcast
10:55 AM 58.1 °F - 54.5 °F 88% 29.98 in 10.0 mi SW 10.4 mph - N/A   Overcast
11:15 AM 58.3 °F - 54.7 °F 88% 29.98 in 10.0 mi WSW 8.1 mph - N/A   Overcast
11:35 AM 58.1 °F - 54.5 °F 88% 29.98 in 10.0 mi WSW 6.9 mph - N/A   Overcast
11:55 AM 58.5 °F - 54.7 °F 87% 29.97 in 10.0 mi WSW 5.8 mph - N/A   Overcast
12:15 PM 58.6 °F - 54.7 °F 87% 29.97 in 10.0 mi WSW 6.9 mph - N/A   Overcast
12:35 PM 59.0 °F - 54.9 °F 86% 29.97 in 10.0 mi WSW 4.6 mph - N/A   Overcast
12:55 PM 58.8 °F - 55.0 °F 87% 29.97 in 10.0 mi SW 4.6 mph - N/A   Overcast
1:15 PM 59.0 °F - 55.2 °F 87% 29.98 in 7.0 mi WNW 8.1 mph - N/A   Overcast
1:35 PM 59.0 °F - 55.2 °F 87% 29.98 in 5.0 mi West 4.6 mph - N/A   Overcast
1:55 PM 59.4 °F - 55.4 °F 87% 29.98 in 5.0 mi West 4.6 mph - N/A   Overcast
2:15 PM 59.4 °F - 55.6 °F 87% 29.98 in 5.0 mi West 3.5 mph - N/A   Overcast
2:35 PM 59.5 °F - 55.4 °F 86% 29.98 in 5.0 mi WSW 4.6 mph - N/A   Overcast
2:55 PM 59.7 °F - 55.6 °F 86% 29.98 in 5.0 mi WSW 4.6 mph - N/A   Overcast
3:15 PM 59.9 °F - 55.8 °F 86% 29.99 in 7.0 mi Calm Calm - N/A   Overcast
3:35 PM 59.7 °F - 55.8 °F 87% 29.99 in 7.0 mi Calm Calm - N/A   Overcast
3:55 PM 59.4 °F - 55.8 °F 88% 30.00 in 7.0 mi Calm Calm - N/A   Overcast
4:15 PM 59.2 °F - 55.4 °F 87% 30.00 in 7.0 mi Calm Calm - N/A   Overcast
4:35 PM 57.9 °F - 54.9 °F 90% 30.01 in 5.0 mi South 4.6 mph - N/A   Overcast
4:55 PM 57.6 °F - 54.9 °F 91% 30.01 in 7.0 mi South 5.8 mph - N/A   Overcast
5:15 PM 57.0 °F - 54.5 °F 91% 30.01 in 7.0 mi South 5.8 mph - N/A   Mostly Cloudy
5:35 PM 55.8 °F - 53.6 °F 92% 30.02 in 5.0 mi South 4.6 mph - N/A   Mostly Cloudy
6:15 PM 53.1 °F - 52.0 °F 96% 30.04 in 4.0 mi NE 3.5 mph - N/A   Overcast
6:55 PM 50.9 °F - 50.0 °F 97% 30.05 in 2.5 mi Calm Calm - N/A   Mostly Cloudy
7:15 PM 50.5 °F - 50.0 °F 98% 30.06 in 0.2 mi Calm Calm - N/A   Unknown
7:35 PM 48.9 °F - 48.2 °F 97% 30.06 in 0.2 mi Calm Calm - N/A   Unknown
7:55 PM 48.4 °F - 47.8 °F 98% 30.07 in 0.2 mi South 4.6 mph - N/A   Overcast
8:15 PM 48.7 °F - 48.2 °F 98% 30.07 in 0.2 mi Calm Calm - N/A   Overcast
8:35 PM 48.2 °F - 47.8 °F 99% 30.07 in 0.2 mi Calm Calm - N/A   Overcast
8:55 PM 46.9 °F - 46.4 °F 98% 30.07 in 0.2 mi ESE 3.5 mph - N/A   Unknown
9:15 PM 44.4 °F 42.9 °F 43.9 °F 98% 30.07 in 0.2 mi SE 3.5 mph - N/A   Unknown
9:35 PM 44.1 °F 42.5 °F 43.3 °F 97% 30.06 in 0.2 mi ESE 3.5 mph - N/A   Unknown
9:55 PM 44.4 °F 42.9 °F 43.9 °F 98% 30.07 in 0.2 mi SE 3.5 mph - N/A   Unknown
10:15 PM 43.9 °F 41.3 °F 43.3 °F 98% 30.07 in 0.2 mi ESE 4.6 mph - N/A   Overcast
10:35 PM 44.4 °F - 43.9 °F 98% 30.06 in 0.2 mi Calm Calm - N/A   Overcast
11:15 PM 43.5 °F - 43.0 °F 98% 30.07 in 0.2 mi Calm Calm - N/A   Overcast
11:35 PM 42.6 °F 40.9 °F 42.1 °F 98% 30.07 in 0.2 mi SE 3.5 mph - N/A   Overcast
11:55 PM 43.2 °F 39.7 °F 42.6 °F 98% 30.06 in 0.2 mi SSE 5.8 mph - N/A   Overcast